Cloud_Cover
5 85 100 100 100 99 24 14 5 5 52 42 3 4 0 0 0 0 0 8 58 100 52 78 8 78 100 100 100 100 100 100 100 100 100 100 100 100 100 100 100 100 100 100
99 99 100 100 100 15 5 5 5 7 53 99 6 4 4 0 0 0 0 5 5 5 98 70 76 91 100 100 100 100 100 100 100 100 100 100 100 100 100 100 100 100 100 100
99 17 96 77 66 96 64 7 5 69 98 100 100 5 0 0 0 0 0 0 4 49 68 6 53 99 100 90 55 100 100 100 100 100 100 100 100 100 100 100 100 100 100 100
99 6 66 32 74 20 79 30 13 67 61 100 100 48 5 1 0 0 0 0 0 13 84 22 4 43 61 92 70 35 97 100 100 100 100 100 100 100 100 100 100 100 100 100
100 14 2 15 87 5 82 5 9 10 48 96 100 100 10 5 5 0 0 3 0 0 6 5 5 5 7 7 99 94 100 100 100 100 100 100 100 100 100 100 100 100 100 100
100 100 58 100 28 5 35 6 27 3 58 6 55 100 93 4 5 3 3 2 4 0 0 3 1 4 1 2 9 100 100 100 100 100 100 100 100 100 100 100 100 100 100 100
100 100 80 36 70 60 80 2 5 54 80 5 97 100 33 34 5 5 1 0 0 0 0 0 0 0 0 0 5 26 100 100 100 100 100 100 100 100 100 100 100 99 96 62
100 100 100 100 100 12 4 43 5 5 94 5 95 100 42 82 34 5 4 0 0 0 2 0 0 0 5 1 0 1 5 99 87 98 100 100 100 78 96 94 96 100 100 100
100 100 100 100 58 5 5 5 5 4 62 27 100 100 10 56 83 5 5 2 0 0 0 0 1 2 5 2 13 0 0 9 72 72 70 7 40 65 97 99 100 100 100 100
100 100 100 100 68 5 5 17 5 5 5 20 96 100 100 60 14 34 33 5 5 0 0 0 16 3 0 2 60 26 89 15 25 16 12 57 83 81 92 100 90 97 99 100
100 100 100 91 4 60 84 48 14 5 5 46 93 100 100 90 5 5 12 5 5 35 4 0 3 0 1 0 69 22 37 100 100 97 94 70 21 18 88 72 38 93 80 100
100 100 100 71 100 32 5 36 57 11 17 99 68 100 100 100 40 5 5 5 70 7 80 13 0 3 53 0 0 0 56 84 91 100 100 100 100 85 75 100 100 100 100 100
100 100 100 100 88 26 83 100 92 74 5 99 100 100 100 94 40 7 5 5 5 5 41 14 32 70 0 0 0 0 0 1 21 57 84 100 100 100 100 100 100 100 100 100
100 100 100 100 100 93 76 100 95 46 5 56 100 100 100 100 20 5 5 5 73 95 83 24 50 90 0 0 0 5 0 0 1 0 1 94 100 100 100 98 96 100 100 100
100 100 100 100 100 100 100 100 99 57 36 56 93 100 100 100 32 93 9 94 100 100 100 86 5 32 5 1 2 3 0 0 0 0 0 0 56 68 25 97 98 48 100 100
100 100 100 100 100 100 99 100 100 100 91 45 98 100 100 100 100 100 33 49 100 95 63 100 64 41 94 13 3 23 61 75 7 0 0 0 0 1 46 41 81 100 100 100
14 65 100 100 100 100 100 100 100 100 100 100 76 100 100 100 100 59 74 100 79 97 74 99 100 35 100 90 46 5 5 80 3 1 29 44 62 100 100 100 100 100 100 100
90 99 100 100 100 100 100 100 100 100 100 100 100 100 100 100 100 100 80 100 100 8 5 33 73 40 11 100 100 98 44 5 2 1 10 36 84 99 100 100 100 100 100 100
2 8 89 100 100 16 98 100 100 100 88 97 100 67 99 100 100 100 98 61 22 33 9 42 100 100 100 100 100 100 100 62 29 72 98 100 100 100 100 100 100 100 100 100
11 5 45 92 61 37 85 100 100 100 78 66 100 91 28 100 55 97 100 41 85 100 100 100 66 100 100 100 100 100 100 100 100 100 100 100 100 100 100 100 100 100 100 100
93 96 100 56 32 4 100 100 100 95 20 99 100 100 100 100 100 100 100 100 71 99 100 100 78 82 100 100 100 100 100 100 100 100 100 100 100 100 100 100 100 100 100 100
5 92 86 100 89 65 100 100 97 23 90 45 100 100 100 87 62 100 100 100 100 100 96 98 92 94 98 100 99 100 100 100 100 100 100 100 100 100 100 100 100 100 100 100
4 2 14 7 53 100 100 100 100 100 100 97 90 100 94 100 95 100 100 100 100 100 24 47 93 100 100 100 100 100 100 100 100 100 99 100 100 100 100 67 51 76 88 100
0 3 5 5 5 100 100 100 100 100 100 100 99 87 92 94 100 64 100 100 100 100 99 96 95 100 100 100 100 100 100 100 100 100 100 100 100 100 100 22 13 18 65 99
58 11 4 1 48 100 100 100 100 100 100 100 100 100 100 77 56 99 100 100 95 98 74 75 70 100 100 100 100 100 100 100 100 100 100 100 100 100 100 100 100 100 100 100
30 49 17 7 100 100 100 100 100 100 100 100 100 55 100 100 93 99 100 100 99 100 100 99 90 100 100 100 91 100 100 100 100 100 100 100 100 100 100 100 100 100 100 100